Total_Precipitation_Accumulation
0.09 0.13 0.23 0.59 1.79 3.12 3.81 3.70 3.26 2.85 2.82 2.11 1.79 1.59 1.65 1.70 1.22 0.95 0.80 0.86 0.93 0.79 0.46 0.47 0.33 0.18 0.10 0.07 0.06 0.17 0.27 0.33 0.52 0.72 0.73 0.62 0.46 0.30 0.20 0.15 0.17 0.19 0.20
0.06 0.11 0.13 0.24 1.00 2.32 3.43 3.23 3.33 3.21 3.39 2.78 2.43 2.40 2.32 2.39 1.75 1.67 0.98 0.72 0.67 0.73 0.65 0.35 0.35 0.29 0.16 0.12 0.11 0.10 0.11 0.14 0.26 0.30 0.35 0.38 0.34 0.26 0.16 0.14 0.12 0.14 0.21
0.06 0.06 0.10 0.14 0.41 1.05 3.03 3.73 3.03 2.76 3.00 3.54 3.05 2.19 2.21 2.36 1.83 1.45 1.22 1.08 1.12 1.01 0.73 0.71 0.32 0.25 0.31 0.26 0.16 0.16 0.17 0.16 0.14 0.20 0.22 0.23 0.16 0.14 0.13 0.12 0.08 0.08 0.10
0.05 0.03 0.07 0.05 0.10 0.39 1.66 3.99 3.45 2.60 2.89 3.03 3.24 2.61 1.90 1.95 1.77 1.78 1.85 1.41 1.35 1.52 1.26 1.12 0.96 0.56 0.38 0.42 0.45 0.39 0.32 0.30 0.26 0.22 0.16 0.14 0.11 0.16 0.09 0.06 0.13 0.15 0.12
0.03 0.03 0.03 0.04 0.08 0.29 0.93 2.36 3.00 3.83 3.50 3.96 3.73 3.67 3.16 2.29 1.82 2.03 1.87 1.58 1.18 1.15 1.71 1.72 1.74 1.68 1.38 1.02 0.84 0.80 0.64 0.49 0.39 0.28 0.26 0.32 0.24 0.19 0.23 0.17 0.06 0.06 0.06
0.02 0.03 0.04 0.09 0.13 0.26 0.46 1.49 2.10 3.02 4.01 4.79 5.46 4.39 3.47 3.12 2.56 2.07 2.10 1.91 1.64 1.18 1.13 1.26 1.41 1.58 1.86 1.61 1.43 1.17 0.90 0.84 0.71 0.60 0.46 0.45 0.50 0.42 0.43 0.37 0.23 0.22 0.14
0.04 0.05 0.03 0.11 0.22 0.26 0.38 0.50 1.23 1.81 2.82 3.91 5.33 4.93 4.08 2.63 2.19 2.02 1.99 1.88 2.01 1.74 1.54 1.35 1.23 1.25 1.08 1.19 1.00 1.01 1.04 0.96 0.91 0.93 0.94 0.93 0.89 0.97 0.97 0.98 0.73 0.55 0.35
0.10 0.08 0.08 0.13 0.24 0.34 0.47 0.49 0.46 0.78 1.40 2.19 3.58 3.54 2.97 2.56 2.57 2.12 1.50 1.20 1.16 1.55 1.56 1.40 1.14 0.96 1.10 0.99 1.03 1.02 1.03 1.16 1.27 1.30 1.34 1.25 1.15 1.29 1.44 1.45 1.40 1.12 0.73
0.20 0.14 0.20 0.26 0.43 0.39 0.43 0.49 0.29 0.30 0.64 1.17 1.78 2.41 2.80 2.05 1.97 2.32 2.24 1.13 0.84 0.98 1.30 1.06 0.88 0.71 0.61 0.66 0.72 0.71 0.81 0.94 1.01 0.98 0.93 0.89 0.79 0.83 0.95 1.20 1.40 1.76 1.50
0.43 0.28 0.36 0.35 0.52 0.40 0.34 0.52 0.46 0.23 0.31 0.72 0.83 1.29 2.07 2.43 2.17 1.74 1.80 1.62 0.77 0.61 0.82 1.03 0.70 0.44 0.39 0.39 0.45 0.47 0.39 0.52 0.68 0.81 0.90 0.88 0.84 0.93 1.02 1.12 1.19 1.47 1.66
0.67 0.66 0.65 0.62 0.51 0.51 0.38 0.52 0.63 0.30 0.22 0.44 0.59 0.66 0.98 1.72 1.67 2.04 1.42 1.48 1.19 0.71 0.62 0.66 0.84 0.66 0.38 0.27 0.30 0.33 0.35 0.39 0.41 0.52 0.69 0.72 0.74 0.88 0.98 1.09 1.29 1.40 1.52
1.48 1.24 0.83 0.87 1.09 1.12 0.87 0.87 1.08 0.63 0.27 0.30 0.28 0.36 0.40 0.95 0.82 1.27 1.53 1.41 1.16 1.02 0.57 0.53 0.58 0.56 0.57 0.40 0.32 0.24 0.27 0.28 0.30 0.33 0.49 0.49 0.69 0.83 0.87 1.01 1.04 1.03 0.98
2.02 1.82 1.36 1.68 1.94 1.99 1.42 0.99 1.17 1.02 0.50 0.37 0.39 0.35 0.38 0.58 0.54 0.80 1.01 1.26 1.68 1.22 0.85 0.61 0.71 0.47 0.44 0.48 0.38 0.28 0.23 0.24 0.24 0.30 0.39 0.39 0.54 0.59 0.56 0.63 0.67 0.73 0.87
2.73 2.84 2.36 2.16 2.33 2.38 1.81 1.51 1.65 1.70 1.30 1.31 1.06 0.53 0.58 0.68 0.37 0.42 0.71 0.68 1.13 1.49 0.93 0.81 0.46 0.37 0.37 0.36 0.43 0.43 0.41 0.38 0.33 0.31 0.34 0.42 0.48 0.47 0.53 0.65 0.71 0.79 0.96
3.11 3.18 3.08 3.03 2.71 2.43 2.42 2.46 2.73 2.79 2.69 2.17 1.24 1.00 0.85 0.66 0.47 0.37 0.53 0.71 0.70 1.19 1.26 1.10 0.86 0.53 0.53 0.67 0.55 0.56 0.65 0.62 0.63 0.59 0.62 0.57 0.55 0.53 0.56 0.58 0.60 0.89 0.98
1.88 1.93 1.99 2.20 2.19 2.16 2.53 2.52 2.32 2.34 2.28 2.18 2.14 1.83 1.15 0.83 0.52 0.53 0.50 0.77 0.88 1.08 1.88 1.38 1.49 1.08 0.78 0.86 0.88 0.86 0.91 1.06 1.13 1.03 0.84 0.79 0.83 0.72 0.67 0.65 0.66 0.84 1.17
0.83 0.73 0.68 0.71 0.86 1.03 0.97 1.04 1.46 1.87 1.96 2.28 2.29 1.87 1.57 1.14 0.88 0.72 0.77 0.91 1.23 1.42 2.06 2.39 2.10 2.12 2.07 1.94 1.49 1.39 1.34 1.51 1.53 1.40 1.30 1.15 0.97 1.09 1.14 1.25 1.24 1.30 1.45
0.24 0.22 0.24 0.19 0.18 0.23 0.16 0.17 0.18 0.27 0.65 1.17 1.64 1.70 1.93 1.99 2.16 1.61 1.60 1.81 2.04 2.24 2.36 2.80 2.85 1.99 1.91 1.97 1.65 1.38 1.15 0.99 0.97 1.02 1.05 1.13 1.18 1.16 1.10 1.21 1.60 1.46 1.22
0.02 0.02 0.01 0.00 0.01 0.02 0.02 0.02 0.03 0.05 0.04 0.09 0.25 0.55 1.06 1.47 1.74 1.76 2.20 2.34 2.45 2.77 2.82 2.59 2.45 1.92 1.77 1.64 1.48 1.68 1.62 1.46 1.25 1.08 0.96 1.02 0.98 1.05 1.11 1.29 1.44 1.26 1.16
0.02 0.01 0.00 0.01 0.03 0.03 0.03 0.05 0.04 0.06 0.13 0.09 0.07 0.29 0.80 0.77 0.70 0.64 0.95 1.10 1.01 0.92 1.13 1.37 1.49 1.45 1.16 1.13 1.07 0.86 1.02 1.18 1.12 1.17 0.95 1.17 0.83 0.93 1.13 0.89 0.81 0.86 0.78
0.15 0.08 0.07 0.08 0.18 0.15 0.21 0.27 0.22 0.36 0.45 0.28 0.23 0.43 0.48 0.47 0.38 0.30 0.34 0.35 0.42 0.40 0.34 0.35 0.33 0.36 0.40 0.43 0.66 0.66 0.56 0.49 0.59 0.66 0.69 0.74 1.09 1.06 0.96 0.94 0.88 0.97 1.00
0.35 0.50 0.30 0.37 0.54 0.56 0.74 0.74 0.68 0.66 0.57 0.41 0.36 0.32 0.26 0.25 0.26 0.12 0.09 0.06 0.03 0.02 0.02 0.04 0.03 0.03 0.08 0.14 0.19 0.27 0.37 0.56 0.58 0.57 0.66 0.94 1.21 0.74 0.66 0.75 0.91 1.08 1.03
0.03 0.18 0.11 0.17 0.23 0.30 0.36 0.48 0.41 0.33 0.32 0.22 0.17 0.13 0.12 0.10 0.07 0.03 0.03 0.02 0.01 0.01 0.01 0.01 0.00 0.00 0.00 0.00 0.03 0.04 0.12 0.16 0.15 0.19 0.40 0.46 0.41 0.48 0.62 0.82 0.82 0.75 0.67
0.04 0.02 0.03 0.02 0.04 0.06 0.09 0.11 0.04 0.04 0.06 0.06 0.06 0.04 0.03 0.03 0.01 0.00 0.00 0.00 0.00 0.01 0.01 0.01 0.01 0.01 0.00 0.00 0.00 0.04 0.06 0.06 0.10 0.21 0.19 0.11 0.11 0.17 0.23 0.32 0.31 0.26 0.41
0.12 0.10 0.07 0.04 0.03 0.03 0.03 0.03 0.03 0.03 0.02 0.02 0.01 0.01 0.01 0.03 0.01 0.01 0.01 0.01 0.01 0.02 0.02 0.01 0.01 0.02 0.02 0.03 0.08 0.07 0.06 0.09 0.17 0.10 0.08 0.13 0.12 0.11 0.09 0.09 0.16 0.26 0.47
0.01 0.01 0.02 0.02 0.02 0.01 0.00 0.00 0.00 0.00 0.00 0.01 0.02 0.02 0.01 0.01 0.01 0.01 0.02 0.04 0.03 0.04 0.03 0.04 0.04 0.04 0.05 0.07 0.07 0.07 0.14 0.17 0.10 0.11 0.08 0.09 0.14 0.24 0.34 0.45 0.52 0.54 0.63